Tracking 31011 objects as of 12-Jul-2025
HD Live streaming from Space Station
objects crossing your sky now

STARLINK-32901

Track STARLINK-32901 now!
10-day predictions
STARLINK-32901 is classified as:


NORAD ID: 62895
Int'l Code: 2025-024S
Perigee: 489.3 km
Apogee: 491.0 km
Inclination: 43.0 °
Period: 94.3 minutes
Semi major axis: 6861 km
RCS: Unknown
Launch date: February 4, 2025
Source: United States (US)
Launch site: AIR FORCE EASTERN TEST RANGE (AFETR)
Your satellite tracking list
Your tracking list is empty




NASA's NSSDC Master Catalog

Two Line Element Set (TLE):
1 62895U 25024S   25193.43669524  .00012501  00000-0  46282-3 0  9996
2 62895  42.9991 242.0704 0001213 273.4914  86.5799 15.27594588 25445
Source of the keplerian elements: AFSPC